El Paso, TX

2:42 PM MDT on September 25, 2016 (GMT -0600)
El Paso International

Weather History for KELP - January, 2012

Change the Weather History Date:

Sunday, January 8, 2012

  Actual Average Record
Temperature  
Mean Temperature 49 °F 44 °F  
Max Temperature 62 °F 57 °F 74 °F (1969)
Min Temperature 35 °F 32 °F 2 °F (1913)
Degree Days  
Heating Degree Days 16 21  
Month to date heating degree days 144 168  
Since 1 July heating degree days 1241 1236  
Cooling Degree Days 0 0  
Month to date cooling degree days 0 0  
Year to date cooling degree days 0 0  
Moisture  
Dew Point 28 °F    
Average Humidity 57    
Maximum Humidity 92    
Minimum Humidity 22    
Precipitation  
Precipitation 0.59 in 0.01 in 0.61 in (1906)
Month to date precipitation 0.59 0.11  
Year to date precipitation 0.59 0.11  
Snow  
Snow 0.00 in - - ()
Month to date snowfall 0.0  
Since 1 July snowfall 3.1  
Snow Depth 0.00 in    
Sea Level Pressure  
Sea Level Pressure 29.95 in    
Wind  
Wind Speed 10 mph (NNE)    
Max Wind Speed 30 mph    
Max Gust Speed 33 mph    
Visibility 9 miles    
Events Rain , Snow    
T = Trace of Precipitation, MM = Missing Value Source: NWS Daily Summary

Daily Weather History Graph

Daily Weather History Graph

Search for Another Location

Airport or City:

Trip Planner

Search our weather history database for the weather conditions in past years. The results will help you decide how hot, cold, wet, or windy it might be!

Date:

Astronomy

Jan. 08, 2012 Rise Set
Actual Time 7:06 AM MST 5:17 PM MST
Civil Twilight 6:39 AM MST 5:44 PM MST
Nautical Twilight 6:09 AM MST 6:14 PM MST
Astronomical Twilight 5:40 AM MST 6:44 PM MST
Moon 5:02 PM MST (1/8) 6:27 AM MST (1/8)
Length of Visible Light 11h 04m
Length of Day
10h 11m
Full, 100% of the Moon is Illuminated
Jan 8
Full
Jan 9
Full
Jan 16
Last Quarter
Jan 23
New
Jan 30
First Quarter

Hourly Weather History & Observations

Time (MST) Temp. Windchill Dew Point Humidity Pressure Visibility Wind Dir Wind Speed Gust Speed Precip Events Conditions
12:51 AM 54.0 °F - 21.9 °F 29% 29.84 in 10.0 mi SW 13.8 mph - N/A   Partly Cloudy
1:51 AM 51.1 °F - 21.0 °F 31% 29.84 in 10.0 mi South 12.7 mph - N/A   Partly Cloudy
2:51 AM 46.0 °F 41.0 °F 19.0 °F 34% 29.85 in 10.0 mi SSE 10.4 mph - N/A   Partly Cloudy
3:51 AM 44.6 °F 39.2 °F 17.6 °F 34% 29.94 in 10.0 mi ESE 10.4 mph - N/A   Partly Cloudy
4:51 AM 39.0 °F 34.0 °F 19.0 °F 45% 29.86 in 10.0 mi East 6.9 mph - N/A   Partly Cloudy
5:51 AM 41.0 °F 35.8 °F 19.0 °F 41% 29.86 in 10.0 mi SE 8.1 mph - N/A   Partly Cloudy
6:51 AM 39.0 °F 32.8 °F 19.0 °F 45% 29.88 in 10.0 mi SE 9.2 mph - N/A   Partly Cloudy
7:51 AM 42.1 °F - 19.9 °F 41% 29.88 in 10.0 mi Calm Calm - N/A   Partly Cloudy
8:51 AM 46.9 °F - 19.9 °F 34% 29.90 in 10.0 mi SSE 9.2 mph - N/A   Clear
9:51 AM 51.1 °F - 19.9 °F 29% 29.90 in 10.0 mi SSE 8.1 mph - N/A   Partly Cloudy
10:51 AM 55.0 °F - 19.9 °F 25% 29.87 in 10.0 mi SSE 8.1 mph - N/A   Scattered Clouds
11:51 AM 59.0 °F - 23.0 °F 25% 29.83 in 10.0 mi Variable 5.8 mph - N/A   Scattered Clouds
12:51 PM 61.0 °F - 23.0 °F 23% 29.78 in 10.0 mi West 8.1 mph - N/A   Scattered Clouds
1:51 PM 60.1 °F - 21.9 °F 23% 29.76 in 10.0 mi Calm Calm - N/A   Mostly Cloudy
2:51 PM 59.0 °F - 21.9 °F 24% 29.78 in 10.0 mi South 9.2 mph - N/A   Overcast
3:51 PM 50.0 °F - 37.9 °F 63% 29.86 in 5.0 mi NW 20.7 mph 27.6 mph 0.00 in Rain Light Rain
4:51 PM 48.0 °F - 39.0 °F 71% 29.92 in 5.0 mi NNW 11.5 mph - 0.02 in Rain Light Rain
5:51 PM 45.0 °F 38.9 °F 39.9 °F 82% 29.97 in 5.0 mi NNW 12.7 mph - 0.09 in Rain Light Rain
6:51 PM 42.1 °F 35.2 °F 37.9 °F 85% 30.04 in 3.0 mi North 12.7 mph - 0.16 in Rain Rain
7:51 PM 37.9 °F 28.5 °F 35.1 °F 89% 30.06 in 4.0 mi NE 17.3 mph - 0.24 in Rain Rain
8:14 PM 37.4 °F 27.2 °F 35.6 °F 93% 30.10 in 8.0 mi NE 19.6 mph - 0.05 in Rain , Snow Light Rain
8:31 PM 35.6 °F 27.5 °F 35.6 °F 100% 30.12 in 10.0 mi NNE 11.5 mph - 0.07 in Rain Light Rain
8:51 PM 36.0 °F 28.0 °F 34.0 °F 93% 30.09 in 10.0 mi NNE 11.5 mph - 0.07 in Rain Light Rain
9:35 PM 35.6 °F 27.5 °F 33.8 °F 93% 30.14 in 10.0 mi NNW 11.5 mph - 0.00 in   Overcast
9:51 PM 36.0 °F 28.0 °F 35.1 °F 97% 30.08 in 10.0 mi NNW 11.5 mph - 0.00 in Snow Light Snow
10:05 PM 35.6 °F 28.0 °F 33.8 °F 93% 30.13 in 10.0 mi NNW 10.4 mph - 0.00 in Rain Light Rain
10:51 PM 37.0 °F 28.1 °F 34.0 °F 89% 30.07 in 10.0 mi NNW 15.0 mph - 0.01 in Rain Light Rain
11:40 PM 37.4 °F 28.9 °F 35.6 °F 93% 30.14 in 10.0 mi North 13.8 mph - 0.00 in   Overcast
11:51 PM 37.9 °F 28.9 °F 35.1 °F 89% 30.06 in 10.0 mi North 16.1 mph - 0.00 in   Overcast